Regional Weather Roundup
Issued by NWS Northern Indiana

Home | Current Version | Previous Version | Text Only | Print | Product List | Glossary On
Versions: 1 2 3 4 5 6 7 8 9 10 11 12 13 14 15 16 17 18 19 20 21 22 23 24 25 26 27 28 29 30 31 32 33 34 35 36 37 38 39 40 41 42 43 44 45 46 47 48 49 50
000
ASUS43 KIWX 170510
RWRIWX

KIWX WEATHER ROUNDUP
NATIONAL WEATHER SERVICE NORTHERN INDIANA
1200 AM EST SUN DEC 17 2017

NOTE: "FAIR" INDICATES FEW OR NO CLOUDS BELOW 12,000 FEET WITH NO
SIGNIFICANT WEATHER AND/OR OBSTRUCTIONS TO VISIBILITY.

* THESE STATIONS ARE NOT UNDER NWS QUALITY CONTROL. THEY ALSO MAY NOT
  REPORT WEATHER SUCH AS PRECIPITATION OR FOG.

INZ001>027-170600-
NORTHERN INDIANA

CITY           SKY/WX    TMP DP  RH WIND       PRES   REMARKS
GARY*          CLOUDY    28  26  94 CALM      30.07S
VALPARAISO     CLOUDY    32  27  81 CALM      30.08R
MICHIGAN CITY* CLOUDY    28  27  93 CALM      30.08R
LAPORTE*       CLOUDY    26  24  93 CALM      30.08R
KNOX*          CLOUDY    32  28  86 CALM      30.08R
SOUTH BEND     CLOUDY    27  25  92 E3        30.09R
GOSHEN         CLOUDY    31  25  78 SE5       30.09R WCI  26
MONTICELLO*    CLOUDY    37  28  70 S5        30.08R
LOGANSPORT*    CLOUDY    32  27  80 S6        30.11R WCI  26
ROCHESTER*     CLOUDY    36  30  80 S5        30.10R
WARSAW*        CLOUDY    32  27  80 CALM      30.09R
AUBURN*        CLOUDY    30  27  86 E6        30.12R WCI  24
FORT WAYNE     CLOUDY    29  25  85 CALM      30.12R
HUNTINGTON*    CLOUDY    32  27  81 S3        30.11R
PERU/GRISSOM   CLOUDY    33  27  79 S7        30.09R WCI  27
MARION*        CLOUDY    32  27  79 S8        30.12R WCI  25

$$
INZ028>050-170600-
CENTRAL INDIANA

CITY           SKY/WX    TMP DP  RH WIND       PRES   REMARKS
LAFAYETTE      CLOUDY    37  28  70 CALM      30.09R
KOKOMO*        CLOUDY    35  27  72 S8        30.11R WCI  29
MUNCIE*        CLOUDY    39  27  62 SW7       30.12R
INDIANAPOLIS   PTCLDY    40  28  62 SW10      30.13R

$$
MIZ043>046-050>051-056>058-064>065-071>073-077>080-170600-
SOUTHWEST LOWER MICHIGAN

CITY           SKY/WX    TMP DP  RH WIND       PRES   REMARKS
BATTLE CREEK   CLOUDY    26  22  84 E3        30.12R
BENTON HARBOR  CLEAR     29  23  78 E7        30.10R WCI  22
COLDWATER*     CLOUDY    27  24  91 E7        30.11S FOG     WCI  19
HILLSDALE*     CLOUDY    25  21  86 E7        30.11R WCI  17
HOLLAND        CLOUDY    24  18  77 E8        30.14R WCI  15
GRAND RAPIDS   CLOUDY    22  19  89 E10       30.14R WCI  11
KALAMAZOO      CLOUDY    26  22  84 E5        30.12R WCI  20
STURGIS*       CLOUDY    31  26  82 E5        30.09R WCI  26
THREE RIVERS*  FAIR      27  24  89 NE5       30.11R WCI  22

$$
OHZ001>008-015>018-024>025-170600-
NORTHWEST OHIO

CITY           SKY/WX    TMP DP  RH WIND       PRES   REMARKS
WAUSEON*         N/A     27  27 100 E8        30.14R WCI  18
DEFIANCE       MOCLDY    27  24  89 NE5       30.14R FOG     WCI  22
FINDLAY        CLOUDY    30  25  81 E5        30.13R WCI  25
TOLEDO EXPRESS CLOUDY    29  28  96 E7        30.14S WCI  22
TOLEDO METCALF MOCLDY    30  26  85 NE6       30.16R WCI  24
LIMA           CLOUDY    36  27  69 S7        30.12R

$$
AND FOR LAKE MICHIGAN COASTAL AND OPEN LAKE BUOY OBSERVATIONS

STATION/POSITION TEMP    WIND        PRES    VSBY  WAVE
                 AIR SEA DIR/SP/G                  HT/PER
                 (F)     (DEG/KT/KT) (MB)    (MI)  (FT/S)
CALUMET HARBOR    35     340/  2/  2 1017.4R
MICHIGAN CITY     36     130/  3/  5   N/A
BURNS HARBOR      37     170/  4/  6 1018.6R
SAINT JOSEPH      30     100/  5/  8 1019.6

$$
&&




USA.gov is the U.S. government's official web portal to all federal, state and local government web resources and services.